Weather History for El Centro, CA

Change the Weather History Date:

Sunday, September 16, 2012

  Actual Average Record
Temperature  
Mean Temperature 86 °F -  
Max Temperature 102 °F 99 °F 109 °F (2013)
Min Temperature 71 °F 74 °F 64 °F (2006)
Cooling Degree Days 20    
Growing Degree Days 36 (Base 50)    
Moisture  
Dew Point 52 °F    
Average Humidity 31    
Maximum Humidity 49    
Minimum Humidity 20    
Precipitation  
Precipitation 0.00 in - - ()
Sea Level Pressure  
Sea Level Pressure 29.95 in    
Wind  
Wind Speed 3 mph (SSW)    
Max Wind Speed 12 mph    
Max Gust Speed -    
Visibility 10 miles    
Events      
Averages and records for this station are not official NWS values.
T = Trace of Precipitation, MM = Missing Value Source: NWS Daily Summary

Daily Weather History Graph

Daily Weather History Graph

Search for Another Location

Airport:

Trip Planner

Search our weather history database for the weather conditions in past years. The results will help you decide how hot, cold, wet, or windy it might be!

Date:

Astronomy

Sep. 16, 2012 Rise Set
Actual Time 6:27 AM PDT 6:46 PM PDT
Civil Twilight 6:02 AM PDT 7:11 PM PDT
Nautical Twilight 5:33 AM PDT 7:40 PM PDT
Astronomical Twilight 5:04 AM PDT 8:09 PM PDT
Moon 7:05 AM PDT 7:01 PM PDT
Length of Visible Light 13h 08m
Length of Day
12h 19m
New Moon, 1% of the Moon is Illuminated
Sep 16
New Moon
Sep 22
First Quarter
Sep 29
Full
Oct 8
Last Quarter
Oct 15
New

Hourly Weather History & Observations

Time (PDT) Temp. Heat Index Dew Point Humidity Pressure Visibility Wind Dir Wind Speed Gust Speed Precip Events Conditions
12:56 AM 79.0 °F - 46.9 °F 32% 29.97 in 10.0 mi West 4.6 mph - N/A   Clear
1:56 AM 78.1 °F - 43.0 °F 29% 29.97 in 10.0 mi Calm Calm - N/A   Clear
2:56 AM 73.0 °F - 50.0 °F 44% 29.96 in 10.0 mi Calm Calm - N/A   Clear
3:56 AM 71.1 °F - 51.1 °F 49% 29.97 in 10.0 mi ESE 3.5 mph - N/A   Clear
4:56 AM 75.0 °F - 46.0 °F 36% 29.97 in 10.0 mi South 3.5 mph - N/A   Clear
5:56 AM 77.0 °F - 52.0 °F 42% 29.98 in 10.0 mi ESE 4.6 mph - N/A   Clear
6:56 AM 71.1 °F - 48.0 °F 44% 30.00 in 10.0 mi Calm Calm - N/A   Clear
7:56 AM 77.0 °F - 51.1 °F 40% 30.01 in 10.0 mi Calm Calm - N/A   Clear
8:56 AM 84.0 °F - 44.1 °F 25% 30.02 in 10.0 mi Calm Calm - N/A   Clear
9:56 AM 89.1 °F - 48.0 °F 24% 30.03 in 10.0 mi Calm Calm - N/A   Clear
10:56 AM 93.0 °F - 46.0 °F 20% 30.02 in 10.0 mi West 3.5 mph - N/A   Clear
11:56 AM 96.1 °F - 52.0 °F 22% 30.01 in 10.0 mi Calm Calm - N/A   Clear
12:56 PM 98.1 °F 96.8 °F 57.0 °F 25% 29.98 in 10.0 mi Variable 4.6 mph - N/A   Clear
1:56 PM 99.0 °F 96.9 °F 54.0 °F 22% 29.95 in 10.0 mi SE 5.8 mph - N/A   Clear
2:56 PM 100.0 °F 100.2 °F 59.0 °F 26% 29.92 in 10.0 mi Calm Calm - N/A   Clear
3:55 PM - - - N/A% - - North - - N/A   Unknown
3:56 PM 100.0 °F 100.2 °F 59.0 °F 26% 29.89 in 10.0 mi Variable 3.5 mph - N/A   Clear
4:56 PM 100.9 °F 99.6 °F 55.9 °F 22% 29.88 in 10.0 mi Variable 3.5 mph - N/A   Clear
5:56 PM 100.0 °F 97.9 °F 54.0 °F 21% 29.87 in 10.0 mi Calm Calm - N/A   Clear
6:56 PM 95.0 °F 96.0 °F 63.0 °F 34% 29.88 in 10.0 mi SE 11.5 mph - N/A   Clear
7:56 PM 91.9 °F 94.1 °F 64.9 °F 41% 29.91 in 10.0 mi South 9.2 mph - N/A   Clear
8:56 PM 91.9 °F 92.5 °F 62.1 °F 37% 29.92 in 10.0 mi SSW 5.8 mph - N/A   Clear
9:56 PM 88.0 °F 85.9 °F 54.0 °F 31% 29.93 in 10.0 mi SW 6.9 mph - N/A   Clear
10:56 PM 84.9 °F - 44.1 °F 24% 29.93 in 10.0 mi West 10.4 mph - N/A   Clear
11:56 PM 84.0 °F - 44.1 °F 25% 29.92 in 10.0 mi WSW 6.9 mph - N/A   Clear